Satellite: MET-2/21 Catalog number: 22782 Epoch time: 10259.47891226 Element set: 885 Inclination: 082.5503 deg RA of node: 180.0200 deg Eccentricity: 0.0023049 Arg of perigee: 143.0298 deg Mean anomaly: 217.2451 deg Mean motion: 13.83649442 rev/day Decay rate: 5.6e-07 rev/day^2 Epoch rev: 86070 Checksum: 291
Satellite: OKEAN-4 Catalog number: 23317 Epoch time: 10259.75663716 Element set: 341 Inclination: 082.5376 deg RA of node: 268.3867 deg Eccentricity: 0.0020614 Arg of perigee: 303.3370 deg Mean anomaly: 056.5871 deg Mean motion: 14.82859704 rev/day Decay rate: 3.25e-06 rev/day^2 Epoch rev: 86002 Checksum: 305
Satellite: NOAA-14 Catalog number: 23455 Epoch time: 10258.72925089 Element set: 0197 Inclination: 098.8735 deg RA of node: 338.8196 deg Eccentricity: 0.0009297 Arg of perigee: 344.5291 deg Mean anomaly: 015.5584 deg Mean motion: 14.13794120 rev/day Decay rate: 1.7e-07 rev/day^2 Epoch rev: 81029 Checksum: 331
Satellite: NOAA-15 Catalog number: 25338 Epoch time: 10258.88196748 Element set: 0523 Inclination: 098.6282 deg RA of node: 244.2200 deg Eccentricity: 0.0010823 Arg of perigee: 165.9031 deg Mean anomaly: 194.2457 deg Mean motion: 14.24853589 rev/day Decay rate: -8.4e-07 rev/day^2 Epoch rev: 64166 Checksum: 320
Satellite: RESURS Catalog number: 25394 Epoch time: 10259.60875017 Element set: 604 Inclination: 098.3048 deg RA of node: 272.7098 deg Eccentricity: 0.0001293 Arg of perigee: 002.4732 deg Mean anomaly: 357.6447 deg Mean motion: 14.24209108 rev/day Decay rate: -2.1e-07 rev/day^2 Epoch rev: 63336 Checksum: 286
Satellite: FENGYUN1 Catalog number: 25730 Epoch time: 10259.39252328 Element set: 137 Inclination: 098.7924 deg RA of node: 221.9951 deg Eccentricity: 0.0022805 Arg of perigee: 009.8585 deg Mean anomaly: 350.3058 deg Mean motion: 14.08281412 rev/day Decay rate: 4.51e-06 rev/day^2 Epoch rev: 58452 Checksum: 298
Satellite: OKEAN-0 Catalog number: 25860 Epoch time: 10258.51916153 Element set: 0101 Inclination: 097.8439 deg RA of node: 228.1996 deg Eccentricity: 0.0001621 Arg of perigee: 104.9131 deg Mean anomaly: 255.2257 deg Mean motion: 14.73661637 rev/day Decay rate: 5.7e-07 rev/day^2 Epoch rev: 60020 Checksum: 279
Satellite: NOAA-16 Catalog number: 26536 Epoch time: 10258.82053546 Element set: 0999 Inclination: 099.1685 deg RA of node: 278.4174 deg Eccentricity: 0.0011326 Arg of perigee: 084.4304 deg Mean anomaly: 275.8138 deg Mean motion: 14.12577200 rev/day Decay rate: 2.63e-06 rev/day^2 Epoch rev: 51462 Checksum: 314
Satellite: NOAA-17 Catalog number: 27453 Epoch time: 10258.76691424 Element set: 0993 Inclination: 098.4210 deg RA of node: 305.5224 deg Eccentricity: 0.0011011 Arg of perigee: 229.6143 deg Mean anomaly: 130.4076 deg Mean motion: 14.24189092 rev/day Decay rate: -9.1e-07 rev/day^2 Epoch rev: 42759 Checksum: 291
Satellite: NOAA-18 Catalog number: 28654 Epoch time: 10258.82959189 Element set: 0481 Inclination: 098.9569 deg RA of node: 204.8624 deg Eccentricity: 0.0014669 Arg of perigee: 154.9296 deg Mean anomaly: 205.2587 deg Mean motion: 14.11390285 rev/day Decay rate: 4.25e-06 rev/day^2 Epoch rev: 27422 Checksum: 349
Satellite: NOAA-19 Catalog number: 33591 Epoch time: 10258.83739954 Element set: 0677 Inclination: 098.7935 deg RA of node: 199.0531 deg Eccentricity: 0.0014898 Arg of perigee: 035.3180 deg Mean anomaly: 324.9002 deg Mean motion: 14.11082894 rev/day Decay rate: 6.5e-07 rev/day^2 Epoch rev: 08269 Checksum: 339
/EX SB KEPS @ AMSAT $ORB10259.M Orbital Elements 10259.MISC
HR AMSAT ORBITAL ELEMENTS FOR MANNED AND MISCELLANEOUS SATELLITES FROM WA5QGD FORT WORTH,TX September 16, 2010 Send Subscribe/unsubscribe to KEPS at http://www.amsat.org/mailman/listinfo/keps BID: ORB10259.M TO ALL RADIO AMATEURS BT
Satellite: HUBBLE Catalog number: 20580 Epoch time: 10259.53929104 Element set: 645 Inclination: 028.4708 deg RA of node: 003.4610 deg Eccentricity: 0.0003296 Arg of perigee: 094.9109 deg Mean anomaly: 265.1874 deg Mean motion: 15.01035155 rev/day Decay rate: 4.50e-06 rev/day^2 Epoch rev: 91849 Checksum: 283
Satellite: ISS Catalog number: 25544 Epoch time: 10260.02223999 Element set: 904 Inclination: 051.6448 deg RA of node: 120.7352 deg Eccentricity: 0.0006123 Arg of perigee: 002.1789 deg Mean anomaly: 157.5240 deg Mean motion: 15.71056674 rev/day Decay rate: 8.255e-05 rev/day^2 Epoch rev: 67791 Checksum: 289
Satellite: CO-58 Catalog number: 28895 Epoch time: 10259.68526459 Element set: 682 Inclination: 097.9991 deg RA of node: 141.0648 deg Eccentricity: 0.0017780 Arg of perigee: 002.6024 deg Mean anomaly: 357.5276 deg Mean motion: 14.59932551 rev/day Decay rate: 1.24e-06 rev/day^2 Epoch rev: 26033 Checksum: 338
Satellite: FALCON Catalog number: 30776 Epoch time: 10259.90585996 Element set: 916 Inclination: 035.4333 deg RA of node: 207.3925 deg Eccentricity: 0.0001503 Arg of perigee: 278.8000 deg Mean anomaly: 081.2555 deg Mean motion: 15.03813330 rev/day Decay rate: 8.14e-06 rev/day^2 Epoch rev: 19387 Checksum: 293
Satellite: MAST Catalog number: 31126 Epoch time: 10259.56622271 Element set: 964 Inclination: 097.9285 deg RA of node: 296.8151 deg Eccentricity: 0.0093916 Arg of perigee: 302.5944 deg Mean anomaly: 056.6262 deg Mean motion: 14.53619532 rev/day Decay rate: 1.62e-06 rev/day^2 Epoch rev: 18133 Checksum: 307
Satellite: CAPE1 Catalog number: 31130 Epoch time: 10258.67254007 Element set: 0985 Inclination: 097.9301 deg RA of node: 293.2008 deg Eccentricity: 0.0101794 Arg of perigee: 314.0671 deg Mean anomaly: 045.2157 deg Mean motion: 14.52220148 rev/day Decay rate: -2.6e-07 rev/day^2 Epoch rev: 18079 Checksum: 272
Satellite: COMPASS Catalog number: 32787 Epoch time: 10258.30926576 Element set: 0779 Inclination: 097.8842 deg RA of node: 321.7890 deg Eccentricity: 0.0015922 Arg of perigee: 356.8077 deg Mean anomaly: 003.3026 deg Mean motion: 14.81962838 rev/day Decay rate: 1.31e-06 rev/day^2 Epoch rev: 12884 Checksum: 328
Satellite: AAUSAT2 Catalog number: 32788 Epoch time: 10258.84358495 Element set: 0769 Inclination: 097.8854 deg RA of node: 322.4647 deg Eccentricity: 0.0015313 Arg of perigee: 356.6649 deg Mean anomaly: 003.4397 deg Mean motion: 14.82110673 rev/day Decay rate: 8.8e-07 rev/day^2 Epoch rev: 12893 Checksum: 343
Satellite: DO-64 Catalog number: 32789 Epoch time: 10258.70733770 Element set: 786 Inclination: 097.8922 deg RA of node: 322.9098 deg Eccentricity: 0.0015369 Arg of perigee: 354.2908 deg Mean anomaly: 005.8098 deg Mean motion: 14.82301957 rev/day Decay rate: 5.81e-06 rev/day^2 Epoch rev: 12891 Checksum: 350
Satellite: CO-66 Catalog number: 32791 Epoch time: 10259.69530258 Element set: 771 Inclination: 097.8857 deg RA of node: 323.1575 deg Eccentricity: 0.0016256 Arg of perigee: 350.3055 deg Mean anomaly: 009.7839 deg Mean motion: 14.81737217 rev/day Decay rate: 6.05e-06 rev/day^2 Epoch rev: 12900 Checksum: 325
Satellite: RS-30 Catalog number: 32953 Epoch time: 10259.64559147 Element set: 50 Inclination: 082.5066 deg RA of node: 332.8129 deg Eccentricity: 0.0017509 Arg of perigee: 262.6074 deg Mean anomaly: 097.3020 deg Mean motion: 12.43007861 rev/day Decay rate: 1.0e-07 rev/day^2 Epoch rev: 10510 Checksum: 264
Satellite: TACSAT-3 Catalog number: 35001 Epoch time: 10258.83331781 Element set: 383 Inclination: 040.4555 deg RA of node: 029.2772 deg Eccentricity: 0.0022722 Arg of perigee: 322.9498 deg Mean anomaly: 036.9748 deg Mean motion: 15.42659535 rev/day Decay rate: 5.555e-05 rev/day^2 Epoch rev: 7463 Checksum: 311
Satellite: PHARMSAT Catalog number: 35002 Epoch time: 10259.53530501 Element set: 361 Inclination: 040.4700 deg RA of node: 022.7646 deg Eccentricity: 0.0025314 Arg of perigee: 330.0276 deg Mean anomaly: 029.9098 deg Mean motion: 15.43097379 rev/day Decay rate: 5.003e-05 rev/day^2 Epoch rev: 7476 Checksum: 262
Satellite: HAWKSAT1 Catalog number: 35003 Epoch time: 10259.49521105 Element set: 391 Inclination: 040.4601 deg RA of node: 014.8147 deg Eccentricity: 0.0023425 Arg of perigee: 349.0278 deg Mean anomaly: 011.0031 deg Mean motion: 15.47113149 rev/day Decay rate: 1.2271e-04 rev/day^2 Epoch rev: 7485 Checksum: 244
Satellite: CP6 Catalog number: 35004 Epoch time: 10258.72445252 Element set: 386 Inclination: 040.4614 deg RA of node: 017.7457 deg Eccentricity: 0.0022518 Arg of perigee: 349.0670 deg Mean anomaly: 010.9647 deg Mean motion: 15.48271484 rev/day Decay rate: 1.3923e-04 rev/day^2 Epoch rev: 7474 Checksum: 297
Satellite: AEROCUB3 Catalog number: 35005 Epoch time: 10259.64397097 Element set: 452 Inclination: 040.4690 deg RA of node: 003.7597 deg Eccentricity: 0.0023554 Arg of perigee: 018.7578 deg Mean anomaly: 341.4152 deg Mean motion: 15.58272560 rev/day Decay rate: 6.2138e-04 rev/day^2 Epoch rev: 7498 Checksum: 314
Satellite: CASTOR Catalog number: 35694 Epoch time: 10230.44082147 Element set: 655 Inclination: 051.5930 deg RA of node: 222.0149 deg Eccentricity: 0.0004218 Arg of perigee: 308.0851 deg Mean anomaly: 053.0105 deg Mean motion: 16.48877011 rev/day Decay rate: 7.179566e-02 rev/day^2 Epoch rev: 6110 Checksum: 273
Satellite: METEOR-M Catalog number: 35865 Epoch time: 10259.61740320 Element set: 662 Inclination: 098.7488 deg RA of node: 312.7189 deg Eccentricity: 0.0003224 Arg of perigee: 094.3781 deg Mean anomaly: 265.7773 deg Mean motion: 14.21831598 rev/day Decay rate: 1.76e-06 rev/day^2 Epoch rev: 5171 Checksum: 316
Satellite: RS-38 Catalog number: 35869 Epoch time: 10259.86039289 Element set: 674 Inclination: 098.7477 deg RA of node: 312.9981 deg Eccentricity: 0.0005454 Arg of perigee: 096.1064 deg Mean anomaly: 264.0718 deg Mean motion: 14.21988616 rev/day Decay rate: 1.77e-06 rev/day^2 Epoch rev: 5175 Checksum: 357
/EX
participants (1)
-
Paul Williamson